Location: Casone le Fosse
(44.6547°N, 12.1103°E)
Time: 12:07:44
(UTC+00:00)

CZ-4B R/B - Pass Details

Date: 29 October 2020
Orbit: 388 x 462 km, 97.6° (Epoch: 27 November)

Event Time Altitude Azimuth Distance (km) Brightness Sun altitude
Rises 17:07:07 0° 8° (N) 2,386 4.9 -11.7°
Reaches altitude 10° 17:09:11 10° 3° (N) 1,502 3.9 -12.1°
Maximum altitude 17:12:18 52° 287° (WNW) 516 2.1 -12.6°
Drops below altitude 10° 17:15:20 10° 209° (SSW) 1,453 4.5 -13.2°
Sets 17:17:18 0° 204° (SSW) 2,296 5.4 -13.5°
